Find ARSAT-1

NORAD ID: 40272 Int'l Des: 2014-062 Owner: ARSAT Country: AR operational
HEOCIRCULARGSOGEO

現在のビュー

3D地球を読み込み中...

About ARSAT-1

ARSAT-1 (NORAD 40272) is a satellite launched Oct 16, 2014 by ARSAT of AR. It operates in HEO, CIRCULAR, GSO, GEO orbit with a mass of 2983.00 kg.

次回通過

Passes for default location (London). Set your location on the main map for personalized predictions.

高度履歴

Loading altitude history...

軌道要素

1 40272U 14062B 26194.83190564 -.00000265 00000-0 00000+0 0 9999
2 40272 0.0415 288.1825 0001702 183.3776 47.8233 1.00270287 42893
Epoch: Jul 13, 2026 • Age: 11 hours

現在のステータス

高度 35792.4 km
遠地点 / 近地点 N/A
速度 3.07 km/s
衛星直下点 -0.01°S, 71.81°W
打ち上げ日 Oct 16, 2014
運用期間 11.7 years
タイプ other

技術仕様

分類 Payload
質量 2983.00 kg
乾燥質量 2000.00 kg
総質量 2983.00 kg
長さ 3.10 m
直径 2.20 m
スパン 16.30 m
形状 Box + 2 panels
製造者 INVAP
バスタイプ ARSAT-Bus
フェーズステータス In Orbit
所有者/国 ARSAT/AR

Most Searched